Location: Bottenau
(48.5138°N, 8.0462°E)
Time: 10:23:23
(UTC+00:00)

USA 245 - Pass Details

Date: 18 April 2021
Orbit: 268 x 984 km, 97.9° (Epoch: 02 May)

Event Time Altitude Azimuth Distance (km) Brightness Sun altitude
Exits shadow 20:24:20 42° 151° (SSE) 785 3.6 -18.0°
Maximum altitude 20:25:33 76° 75° (ENE) 537 3.1 -18.2°
Drops below altitude 10° 20:28:54 10° 350° (N) 1,572 6.4 -18.6°
Sets 20:30:42 0° 349° (NNW) 2,347 7.5 -18.8°
